Location: Ithaca
(42.4410°N, 76.4970°W)
Time: 01:43:02
(UTC-05:00)

HST - Visible Passes

Search period start: 24 November 2014 00:00
Search period end: 04 December 2014 00:00
Orbit: 545 x 550 km, 28.5° (Epoch: 23 November)

Date Brightness Start Highest point End Pass type
(mag) Time Alt. Az. Time Alt. Az. Time Alt. Az.
24 Nov 3.4 06:02:26 10° SSW 06:03:59 12° S 06:05:33 10° SSE visible
25 Nov 3.4 05:54:49 10° SSW 05:56:19 12° S 05:57:48 10° SSE visible
26 Nov 3.4 05:47:22 10° SSW 05:48:38 11° S 05:49:53 10° SSE visible
27 Nov 3.4 05:40:14 10° SSW 05:40:56 10° S 05:41:37 10° S visible
